Theta_e
286 286 286 286 286 286 286 286 286 287 287 287 287 287 287 287 287 287 287 287 287 287 287 287 287 286 287 287 287 287 286 286 286 286 286 286 285 285 285 285 286 287 288 289 290 290 290 291 291 292 292 292 293 293 293 293 293 293 292 292 292 292 291 290 290 291 291 292 293 293 294 294 295 295 295 295 295 295 294 294 294 292 291 291 291
286 286 286 286 286 286 286 286 286 286 286 286 286 286 285 285 285 285 286 286 286 286 286 286 286 286 286 286 287 287 287 287 286 286 286 286 286 286 286 285 285 285 285 286 287 288 289 289 290 290 291 291 291 292 292 292 292 292 292 292 291 291 291 290 290 290 290 291 292 292 293 293 294 294 294 295 295 295 295 294 294 293 292 292 291
286 286 286 286 286 285 286 286 285 285 285 285 285 285 284 284 284 284 284 285 285 285 285 285 285 285 285 286 286 286 286 286 286 286 286 286 286 286 286 286 286 285 285 284 285 285 286 287 287 288 289 289 290 290 291 291 292 292 291 291 291 291 291 291 290 290 290 290 291 292 292 292 293 293 293 294 294 294 294 294 294 294 293 292 291
286 286 286 286 286 285 285 285 285 285 285 285 285 285 285 285 284 284 284 284 284 284 284 284 284 284 284 284 284 285 285 285 285 286 285 285 285 285 285 285 285 286 286 285 285 284 284 284 285 285 286 287 288 289 289 290 290 291 291 291 291 291 291 290 290 290 289 289 290 291 291 292 292 293 293 293 293 292 292 292 292 292 292 291 290
287 287 286 286 286 285 285 285 285 285 285 285 285 285 285 285 285 285 284 284 284 283 283 283 283 283 283 283 283 283 284 284 284 284 285 284 284 284 284 284 285 285 285 285 285 285 285 284 284 284 284 285 286 287 288 289 289 289 290 290 290 290 290 290 290 289 289 288 289 290 290 291 291 292 292 291 291 291 291 290 290 290 290 290 289
287 287 286 286 286 285 285 285 285 285 284 284 284 284 284 284 284 284 284 283 283 283 282 282 282 282 282 282 282 282 282 282 282 282 283 283 283 283 283 283 284 284 284 284 285 285 285 285 285 284 284 284 285 285 286 287 288 289 289 289 290 290 290 290 290 289 288 288 288 289 289 290 290 291 291 291 290 290 290 289 289 289 288 288 289
287 287 286 286 286 285 285 285 285 285 284 284 284 284 284 283 283 283 283 282 282 282 281 281 281 281 281 281 281 281 281 281 281 281 281 281 282 282 282 282 282 283 283 283 283 284 284 285 285 285 285 285 284 284 284 285 286 288 288 288 289 289 289 289 289 289 288 288 288 288 288 288 289 290 290 290 290 289 289 288 287 287 288 288 289
287 287 287 286 286 286 286 286 285 285 285 285 285 285 285 284 283 283 282 282 281 281 280 280 280 280 280 280 280 280 280 280 280 280 280 280 281 281 281 282 282 282 282 283 283 283 284 284 284 284 285 285 285 285 284 284 285 286 287 288 288 288 288 288 288 288 288 288 288 288 288 288 288 288 288 288 287 287 287 287 287 287 287 288 289
288 287 287 286 286 286 286 286 286 285 285 285 285 285 284 283 283 282 281 281 280 280 279 279 279 279 279 279 279 279 279 279 279 279 280 280 280 281 281 282 282 282 283 283 283 283 283 283 283 284 284 284 284 285 284 284 284 285 285 286 287 288 288 288 288 288 288 288 288 288 288 287 287 287 287 286 286 287 287 287 287 287 287 287 287
287 287 286 285 285 285 285 285 285 284 284 283 283 282 282 281 280 280 280 279 279 278 278 278 278 278 278 278 278 278 278 278 278 279 280 280 281 281 281 282 282 282 282 283 283 283 283 283 283 283 283 284 284 284 284 284 284 284 284 285 286 287 288 287 288 288 288 288 288 288 288 287 287 286 286 287 287 287 287 286 286 286 286 286 286
286 285 284 284 283 283 283 283 282 282 281 280 280 279 279 278 278 278 278 277 277 277 276 276 276 276 277 277 277 277 277 277 277 278 279 280 280 281 281 281 281 281 282 282 282 282 282 282 283 283 283 283 283 283 284 284 284 284 284 284 285 286 287 287 287 287 287 288 288 288 288 288 288 287 287 287 287 287 287 286 286 286 286 285 286
284 283 282 281 281 280 280 280 279 279 278 277 277 277 276 276 276 276 276 275 275 275 275 275 275 275 275 275 275 275 275 276 276 277 278 279 279 280 280 280 280 280 281 281 281 282 282 282 282 282 282 282 283 283 283 283 284 284 284 284 284 284 285 286 287 288 288 287 288 288 288 288 288 288 288 287 286 286 286 286 286 286 286 286 286
282 280 280 279 279 278 278 277 277 276 276 275 275 275 275 274 274 273 273 273 273 273 273 273 273 273 273 273 273 273 273 274 275 276 277 277 278 278 279 279 279 279 279 279 280 280 281 281 281 281 282 282 282 283 283 283 283 283 284 284 284 284 284 285 286 287 288 288 288 288 288 288 288 288 288 288 287 286 286 286 286 286 286 286 286
279 278 277 277 277 276 276 276 275 275 274 274 274 273 273 272 272 271 271 271 270 270 270 270 270 270 270 270 270 271 271 272 273 274 275 276 276 277 277 277 277 277 277 278 278 279 279 280 280 280 281 281 281 282 282 282 283 283 283 284 284 284 284 284 285 285 287 288 288 288 288 288 288 288 288 288 288 287 286 286 286 286 286 286 286
277 277 276 275 275 275 274 274 274 273 273 272 272 272 271 270 270 269 269 268 268 268 268 268 268 268 268 268 268 268 269 270 271 272 273 274 275 275 276 276 276 276 276 276 277 277 277 278 278 279 279 279 280 281 281 282 282 282 283 283 283 284 284 284 284 284 285 286 287 288 288 288 288 288 288 288 288 288 287 287 287 287 286 286 286
276 275 274 274 273 273 273 272 272 271 271 271 270 270 269 268 268 267 267 267 266 266 266 266 266 266 266 266 266 266 266 267 268 270 271 272 273 273 273 273 274 274 274 275 275 276 276 277 277 277 277 277 278 279 279 281 281 282 283 283 283 283 283 283 284 284 284 285 285 286 287 288 288 288 288 288 288 288 287 287 287 286 286 286 285
274 273 272 272 271 271 271 270 270 270 269 269 268 268 267 267 266 265 265 265 264 264 264 264 264 264 264 264 264 264 264 265 267 268 269 270 271 271 271 271 272 273 273 273 273 274 274 275 275 275 276 276 276 277 278 279 280 281 282 283 283 283 283 283 283 284 284 284 285 285 285 286 287 288 288 288 288 288 287 286 285 285 285 285 285
271 271 270 270 270 269 269 269 269 268 268 267 266 266 265 265 264 264 263 263 263 263 263 263 263 263 263 263 263 263 264 264 265 266 267 268 269 270 270 271 271 271 272 272 272 273 273 273 274 274 275 275 275 276 277 278 279 280 281 282 283 283 283 283 283 283 284 284 284 285 285 285 286 287 287 288 288 289 287 286 286 285 285 285 285
270 269 269 269 269 269 269 268 268 267 266 266 265 264 264 263 263 263 262 262 262 262 262 262 262 262 262 262 263 263 263 263 264 265 266 268 269 269 270 270 270 271 271 271 272 272 272 273 273 273 274 274 274 275 276 277 278 279 280 281 282 283 283 283 283 283 284 284 284 285 285 285 285 286 287 287 288 288 288 288 287 286 285 285 285
269 268 268 268 269 268 268 267 266 265 265 264 264 263 263 262 262 262 262 262 261 261 261 261 261 262 262 262 262 262 263 263 263 265 266 267 268 269 269 270 270 270 270 270 271 271 271 272 272 272 273 274 274 275 276 276 277 277 278 279 281 282 282 283 283 283 283 284 284 284 284 285 285 285 286 286 287 287 288 288 288 287 286 286 285
268 268 268 268 268 268 267 266 265 265 264 263 263 262 262 262 262 261 261 261 261 261 261 261 261 261 261 262 262 262 262 263 263 264 265 267 267 268 269 269 269 270 270 270 270 270 271 271 271 272 272 273 274 275 276 276 277 278 278 279 279 280 281 282 283 283 283 283 284 284 284 284 285 285 285 286 286 287 287 288 288 287 287 286 286
267 267 268 268 268 267 266 265 265 264 264 263 262 262 262 262 261 261 261 261 261 261 261 261 261 261 261 261 261 262 262 262 263 264 265 266 267 268 269 269 269 270 270 270 270 270 270 270 270 271 271 272 272 273 274 275 276 277 277 278 279 280 281 282 283 283 283 283 284 284 284 284 284 284 284 285 285 286 286 287 287 287 287 287 286
266 267 267 267 267 266 265 265 264 264 264 263 262 262 262 262 261 261 261 261 260 260 260 260 261 261 261 261 261 262 262 263 263 264 265 266 267 268 269 269 270 270 270 270 270 270 270 270 270 270 270 271 272 272 273 274 274 275 276 277 278 279 279 281 282 283 284 284 283 284 284 284 284 284 284 285 285 285 286 286 287 287 287 287 287
266 266 266 266 266 265 264 264 264 264 263 262 262 262 262 261 261 261 261 260 260 260 260 260 260 260 260 261 261 262 263 263 264 264 265 266 267 268 269 269 270 270 270 270 270 270 270 270 270 271 271 272 273 273 274 274 274 274 275 275 276 277 278 279 281 282 284 284 284 283 284 284 284 284 284 284 285 285 285 286 286 286 287 287 287
265 265 266 265 264 264 263 264 264 263 262 262 262 261 261 261 261 261 260 260 260 260 260 260 260 260 260 261 262 263 263 264 265 265 266 266 267 268 268 269 270 270 271 270 270 270 271 271 272 272 272 273 273 273 273 273 273 273 274 274 275 275 276 278 280 281 283 284 284 284 284 284 284 284 284 284 284 284 285 285 285 286 286 286 286
264 265 264 264 263 263 263 263 263 262 262 262 262 261 261 260 260 260 260 260 259 259 260 260 260 261 261 262 263 264 264 265 266 266 266 267 267 267 268 268 269 270 270 271 271 271 271 271 272 272 272 272 272 272 272 272 272 273 273 274 274 274 275 276 278 280 282 284 285 285 284 284 284 284 284 284 284 284 284 284 285 285 285 285 286
263 264 263 263 263 262 262 262 262 261 262 262 262 261 261 260 260 260 260 260 259 260 260 261 261 262 263 264 264 265 266 266 267 267 267 267 267 268 268 268 269 269 269 270 270 270 271 271 271 271 272 272 272 272 272 272 272 273 273 273 273 274 274 275 276 278 280 282 284 285 285 285 284 284 284 284 284 284 284 284 284 284 284 285 285
262 263 262 262 262 262 262 261 261 261 261 261 261 261 261 260 260 260 260 260 260 260 261 262 263 264 265 266 266 266 267 267 267 268 268 268 269 269 269 270 270 270 269 270 270 270 270 270 270 271 271 271 271 271 272 272 272 272 272 273 273 273 274 275 276 277 278 281 283 284 285 285 285 284 284 284 284 284 284 284 284 284 284 284 283
262 262 262 261 261 261 261 261 261 261 261 261 261 261 261 260 260 261 261 261 262 263 264 265 266 266 267 267 267 268 268 268 268 269 269 270 271 271 271 271 271 271 271 271 271 271 271 271 271 271 271 271 271 272 272 272 272 273 273 273 273 274 274 275 276 277 278 280 282 284 284 285 285 284 284 283 283 284 284 283 283 283 283 282 282
261 261 261 261 261 261 261 261 260 260 260 260 260 261 262 263 262 261 262 263 264 265 266 267 267 268 268 268 268 268 268 269 269 270 270 271 271 272 272 272 272 272 272 273 273 273 273 272 272 272 272 272 272 272 272 272 272 273 273 273 273 274 274 275 276 277 278 280 282 283 283 284 284 284 284 283 283 283 283 283 283 283 282 281 281
261 261 261 261 261 260 260 260 260 260 260 260 259 259 261 264 265 263 262 263 264 265 266 267 267 268 268 268 268 268 268 269 269 270 271 271 271 272 272 272 273 273 273 273 273 273 272 272 272 272 272 272 272 272 272 272 273 273 273 273 273 274 274 275 276 276 278 279 281 283 283 283 284 284 284 284 283 283 282 282 282 282 281 281 281
260 260 260 260 260 260 260 260 260 259 259 259 259 259 259 261 263 264 264 263 263 264 265 266 267 267 267 267 268 268 268 269 269 270 270 271 271 272 272 272 273 273 273 273 272 272 271 271 271 271 271 271 271 272 272 272 272 272 273 273 273 274 274 275 275 276 277 279 281 283 283 283 283 284 284 284 284 283 282 281 281 281 281 281 281
260 260 260 260 260 260 259 259 259 259 259 259 259 259 259 259 259 261 263 264 266 266 265 265 265 265 266 266 267 268 268 269 269 269 270 271 271 271 272 272 273 273 272 271 270 270 270 270 270 270 270 271 271 271 272 272 272 272 273 273 273 273 274 274 275 276 277 278 280 282 282 283 283 283 284 284 283 283 282 281 281 281 280 280 280
260 260 260 259 259 259 259 259 259 259 259 259 258 259 259 259 259 259 260 262 264 266 267 266 265 264 265 265 266 267 267 268 268 269 270 270 271 271 271 271 271 270 270 269 269 269 269 269 270 270 271 271 271 271 272 272 272 273 273 273 273 274 274 274 275 276 277 278 279 280 281 282 282 283 283 283 283 282 281 280 280 280 280 279 279
260 260 260 259 259 259 259 258 259 258 258 259 259 259 259 260 260 260 260 260 260 262 263 264 264 263 264 265 265 265 266 267 267 268 269 269 269 269 269 269 268 268 268 268 268 269 269 270 270 270 271 271 271 271 272 273 273 273 273 273 273 274 274 274 275 276 277 278 279 280 280 281 282 282 282 282 282 281 281 280 280 279 279 279 279
260 260 260 259 258 258 258 258 258 259 259 259 259 259 259 260 260 260 260 260 261 261 261 261 262 262 263 263 264 264 265 266 267 267 267 266 266 266 266 266 266 266 266 267 267 268 268 269 269 269 269 269 270 270 271 272 273 274 274 274 274 274 274 275 276 277 278 278 279 280 280 281 281 282 282 282 281 281 280 280 279 279 279 279 278
260 260 259 259 258 258 258 259 259 259 259 259 259 259 259 259 260 260 260 260 260 261 261 261 261 262 262 263 262 263 265 266 266 265 264 263 263 263 263 263 264 264 264 265 265 266 266 266 266 267 267 268 268 269 270 272 273 274 274 274 274 274 275 275 276 277 278 279 279 280 280 280 281 281 281 281 281 280 280 280 279 278 278 278 278
260 260 259 258 258 258 258 258 259 259 259 259 259 259 259 259 259 260 260 260 260 260 260 261 261 261 262 262 262 263 265 264 263 262 261 261 261 261 261 262 262 262 263 263 263 263 264 264 265 265 266 266 267 268 270 272 274 274 274 274 275 275 276 276 277 277 278 279 279 279 280 280 280 281 281 280 280 280 279 279 278 278 277 277 277
260 260 259 258 258 258 258 258 259 259 258 258 258 259 259 259 259 259 260 260 260 260 260 260 261 261 261 261 262 264 264 263 261 260 260 260 260 260 260 260 260 261 261 261 261 262 262 263 263 264 264 265 267 268 270 271 273 275 275 275 275 276 276 277 278 278 279 279 279 279 280 280 280 280 280 280 279 279 278 278 278 277 277 276 276
260 260 260 259 258 258 259 259 259 258 258 258 258 258 258 259 259 259 259 259 259 260 260 260 260 261 261 261 263 265 264 262 260 260 260 260 260 260 260 260 260 260 260 260 260 261 261 262 262 263 264 265 266 267 268 269 271 273 275 275 275 276 276 277 278 278 279 279 279 279 280 280 280 280 279 279 279 279 278 277 277 277 276 276 275
260 260 259 259 258 258 259 259 259 258 258 258 258 258 258 258 259 259 259 259 259 259 260 260 260 260 261 261 263 264 263 261 260 260 260 260 260 260 259 259 259 259 259 260 260 260 261 261 261 262 263 264 264 265 266 268 269 271 273 274 275 276 276 277 277 277 278 279 279 279 279 279 279 279 279 279 279 278 278 277 276 276 275 275 275
259 259 259 259 258 258 259 259 259 258 258 258 258 258 258 258 258 258 258 258 259 259 259 260 260 260 260 261 262 262 261 260 260 260 260 260 260 260 260 260 260 260 260 260 260 260 261 261 261 262 262 263 264 264 265 266 267 268 270 272 273 274 275 275 275 276 277 277 277 278 278 277 277 278 277 277 277 276 276 275 275 274 274 274 273
259 259 259 259 259 258 258 258 258 258 257 257 258 258 258 258 258 258 258 258 258 259 259 259 260 260 260 261 261 261 260 260 260 260 260 260 260 260 260 260 260 260 260 260 261 261 261 261 262 262 262 263 264 264 265 266 266 267 268 270 271 272 272 273 273 274 275 275 275 275 276 275 275 276 275 275 275 274 274 273 273 273 273 273 272
259 259 259 259 259 259 258 258 257 257 257 257 257 258 258 257 258 258 258 258 258 258 259 259 259 259 260 260 260 260 260 260 260 260 260 260 260 260 260 260 260 260 261 261 261 261 262 262 262 263 263 264 264 264 265 266 266 267 268 269 269 270 270 271 272 272 273 273 274 274 274 274 274 274 273 273 273 273 272 272 272 272 272 271 271
259 259 259 259 260 260 259 258 257 257 257 257 257 258 257 257 257 258 258 258 258 258 259 259 259 259 259 259 259 259 259 259 259 260 260 260 260 260 260 260 260 260 261 261 262 262 262 263 263 263 264 264 264 265 265 266 266 267 268 268 269 269 269 270 270 271 272 272 272 272 272 272 272 272 272 272 272 272 271 271 271 271 271 271 271
259 259 259 260 260 260 260 259 258 258 258 258 257 257 257 257 258 258 258 258 258 258 258 258 258 258 259 259 259 259 259 259 259 259 260 260 260 260 260 260 260 261 261 262 262 263 263 263 263 264 264 264 265 265 265 266 266 266 267 267 268 268 269 269 270 270 271 271 271 272 272 271 271 271 271 271 271 271 270 270 270 270 270 270 270
259 259 259 260 260 260 259 259 258 258 258 258 257 257 257 257 258 258 258 258 258 258 258 258 258 259 259 259 259 259 259 259 259 259 259 260 260 260 260 261 261 261 262 262 263 263 263 263 264 264 264 265 265 265 265 265 266 266 266 267 267 268 268 269 269 270 270 270 271 271 271 270 270 270 270 270 270 270 270 269 270 270 269 269 270
260 260 260 260 260 260 259 259 259 259 258 258 257 257 257 258 258 258 258 258 258 258 258 259 259 259 259 259 259 259 259 259 260 260 260 260 261 261 261 261 261 262 262 263 263 264 264 264 264 264 264 265 265 265 266 266 266 266 266 266 267 267 268 268 269 269 269 270 270 270 270 270 269 269 269 269 269 269 269 269 269 269 269 269 270
260 260 260 260 260 260 259 259 259 258 258 257 257 257 258 258 258 258 258 258 258 258 258 259 259 259 259 260 260 260 260 260 260 260 261 261 261 261 262 262 262 262 263 263 263 263 264 264 264 264 264 265 265 265 266 266 266 266 266 266 266 267 268 268 268 268 269 269 269 269 269 269 269 269 269 268 268 268 268 268 268 269 269 269 269
260 260 260 260 260 260 259 259 259 258 258 257 257 258 258 258 258 258 258 258 259 259 259 259 259 260 260 260 260 260 260 260 260 260 261 261 261 262 262 262 262 263 263 263 263 264 264 264 263 263 264 264 264 265 265 266 266 266 266 266 266 267 267 267 268 268 268 268 268 268 268 268 268 268 268 268 268 268 268 268 268 268 268 268 268
260 260 260 260 260 260 260 259 259 259 258 258 258 258 258 258 258 259 258 258 259 259 259 259 259 260 260 260 260 260 260 260 260 260 261 261 261 261 262 262 262 263 263 263 263 264 264 264 263 263 263 263 264 264 264 265 265 266 266 266 266 266 267 267 267 267 268 268 268 268 268 268 268 267 267 267 267 267 267 268 268 268 268 268 267
Wind_Speed
5 6 6 6 7 8 8 10 11 12 13 13 14 15 16 18 19 19 20 22 23 24 25 26 27 28 29 29 29 29 28 27 27 27 27 27 27 27 27 27 26 24 23 23 22 23 24 25 26 25 24 25 27 26 27 27 27 27 27 28 30 31 30 25 17 14 19 23 25 25 26 29 33 36 38 39 39 40 42 43 44 45 44 44 44
4 4 4 4 5 5 5 7 8 10 10 11 11 13 14 17 19 20 21 22 23 23 24 26 26 27 28 29 30 30 31 31 31 30 29 28 28 28 28 28 29 29 27 26 24 24 24 25 27 27 26 27 27 27 27 27 27 28 28 27 29 30 29 28 23 17 18 22 24 26 27 29 32 35 37 39 39 40 42 43 44 45 46 46 45
2 2 3 3 3 4 4 5 7 9 10 11 12 13 15 19 20 22 23 24 25 25 25 25 26 27 28 29 29 30 31 31 32 32 32 31 30 29 28 27 28 29 29 29 28 26 26 26 26 26 26 28 28 28 28 28 28 29 29 28 29 30 29 29 28 23 20 21 23 26 27 29 32 34 35 37 39 40 41 43 44 45 46 46 47
3 3 3 3 3 4 4 5 8 10 12 14 15 17 19 22 24 25 26 26 27 27 28 28 28 29 29 30 31 31 31 32 32 33 33 33 33 32 31 29 28 27 28 28 29 29 28 28 28 26 26 27 29 29 28 29 29 29 30 29 29 29 29 29 30 29 25 22 22 24 26 29 32 33 32 34 36 39 41 42 42 44 45 45 46
5 5 5 4 4 5 5 6 9 11 13 16 18 20 22 25 27 29 29 29 30 30 30 31 30 31 31 31 32 33 33 33 33 34 34 34 34 34 34 32 31 29 28 28 28 28 29 29 29 28 27 27 28 29 28 29 29 29 30 30 29 29 29 28 30 31 29 26 24 23 24 28 30 31 31 32 33 36 39 40 41 41 42 43 43
7 6 6 6 6 6 7 8 11 12 15 18 20 22 24 26 28 30 30 30 30 31 31 32 31 32 32 32 32 32 33 33 33 34 34 34 34 34 34 34 34 33 31 30 29 28 28 30 30 30 29 29 29 29 28 29 29 29 30 30 30 29 29 29 29 29 30 30 27 24 24 27 29 30 31 32 32 34 36 37 39 39 39 39 41
8 8 8 8 8 9 10 12 14 16 19 22 25 27 28 29 30 31 30 30 31 31 31 32 32 32 32 32 32 32 32 33 34 34 33 33 33 33 34 35 35 35 35 34 32 30 29 30 31 31 31 31 31 31 29 29 29 30 30 30 29 28 28 29 28 27 29 29 27 25 25 26 28 30 31 31 31 34 34 32 31 35 38 39 42
10 10 10 10 11 12 13 15 17 20 23 25 28 30 31 33 34 34 33 33 33 33 34 34 35 34 33 32 32 31 32 32 33 32 31 32 32 33 34 35 35 36 36 36 35 34 32 31 31 32 33 33 34 33 31 30 29 30 31 30 28 28 28 28 27 26 26 26 25 25 24 24 26 28 28 25 26 30 31 28 28 32 37 40 43
12 11 11 11 13 14 16 18 20 22 25 27 29 31 33 35 36 36 37 36 37 37 37 37 37 37 37 36 35 35 34 34 34 32 30 31 32 32 33 33 34 35 36 37 37 36 36 35 34 33 32 33 34 35 34 32 30 31 32 31 29 28 28 28 26 25 24 23 24 24 21 20 24 25 24 25 28 29 28 29 30 31 30 33 39
11 10 10 11 14 15 17 19 21 23 26 28 30 31 33 35 36 38 39 39 39 39 39 39 38 38 39 40 40 40 38 38 37 33 29 29 31 32 32 32 32 33 34 36 37 38 37 37 37 36 35 34 34 35 36 36 34 34 34 33 31 30 29 28 27 26 24 22 23 22 18 18 23 24 25 29 31 29 26 28 30 27 23 24 30
10 10 11 13 15 17 19 21 22 24 25 27 29 31 33 34 36 37 39 40 41 41 41 41 41 40 39 40 41 42 42 43 42 35 31 29 30 31 31 32 32 33 33 34 36 37 38 38 38 38 38 37 36 36 36 36 36 36 37 36 34 33 32 30 29 28 25 23 24 24 19 21 25 25 26 29 29 28 30 29 28 25 22 18 18
12 13 14 16 17 19 20 22 23 24 25 27 29 31 32 34 35 36 38 39 40 41 41 41 41 41 39 39 40 41 43 45 43 37 34 32 31 30 31 32 32 33 33 33 34 36 37 38 38 38 38 38 38 37 36 36 37 37 38 38 37 36 35 34 33 32 29 26 26 26 24 26 27 25 25 27 26 28 31 29 28 28 25 22 21
14 15 16 17 18 19 21 22 24 26 27 28 30 31 33 34 34 35 36 37 37 38 39 39 40 40 38 38 40 41 43 44 40 36 35 35 33 32 32 33 34 34 35 35 36 36 36 36 36 36 37 37 37 37 37 38 38 37 38 38 38 39 38 38 38 37 36 33 29 30 32 31 29 28 28 26 26 28 29 28 30 30 27 27 29
14 15 16 17 18 20 21 23 25 27 28 29 31 32 33 34 33 32 33 34 34 35 37 38 39 39 38 37 39 41 43 41 37 35 36 35 34 34 34 35 37 37 38 38 38 38 38 37 37 37 37 37 36 36 37 38 38 37 37 37 37 39 40 40 40 40 40 39 36 38 40 37 33 33 30 25 26 29 29 29 31 30 30 33 34
15 15 16 17 19 21 23 24 26 27 29 30 31 32 32 32 32 31 32 33 34 34 35 36 37 37 36 36 38 41 42 39 36 36 36 34 34 34 34 36 38 39 41 40 39 39 39 38 38 38 38 38 37 36 36 37 37 38 37 37 38 39 40 41 42 41 41 41 41 43 46 43 39 38 34 28 29 31 31 32 33 32 34 35 33
14 15 16 17 19 21 23 25 26 28 29 29 30 31 31 31 31 32 33 34 34 33 34 35 35 36 36 35 35 39 40 36 34 34 34 33 33 34 34 35 37 39 41 40 39 39 38 38 38 39 40 41 41 38 37 37 38 38 39 39 40 40 42 43 44 44 44 43 43 44 46 46 44 42 39 34 31 31 30 30 31 30 28 25 24
13 13 15 16 18 20 22 24 26 27 28 28 29 29 30 31 31 30 32 33 34 33 34 35 33 33 34 34 34 37 39 34 31 32 32 31 32 33 33 35 36 37 40 41 40 40 40 40 39 40 41 42 41 39 37 37 38 38 38 39 39 39 41 44 44 45 45 45 46 45 45 47 46 44 44 40 36 33 29 26 27 27 23 15 14
12 13 15 17 19 20 21 23 24 25 26 27 28 29 29 30 30 29 29 32 33 33 33 35 34 32 33 34 33 35 38 34 31 31 31 30 30 31 32 33 34 35 37 38 38 38 39 38 37 37 39 40 40 39 37 36 37 38 37 37 37 38 40 42 42 42 43 43 43 44 44 45 45 44 44 43 40 35 31 30 29 26 22 17 16
13 15 17 18 19 20 21 22 23 24 25 26 27 28 28 29 29 29 29 30 33 33 33 34 35 32 32 34 32 32 36 35 31 30 30 29 29 29 30 31 33 33 33 33 34 34 35 36 36 36 38 39 40 40 39 37 37 38 37 36 35 37 40 42 40 40 40 39 39 40 42 43 43 41 40 41 40 37 36 36 34 28 24 23 23
14 16 17 18 19 20 21 22 22 23 24 25 26 27 27 28 29 30 30 30 32 33 32 33 34 33 31 32 32 31 34 35 32 29 29 29 28 28 29 29 30 31 31 32 34 34 33 34 34 33 34 36 38 38 38 37 38 39 38 37 36 38 40 41 41 40 39 38 38 39 40 41 41 38 37 38 39 38 38 38 37 34 30 28 26
15 16 17 18 20 21 21 21 22 23 23 25 26 27 27 28 29 30 31 31 31 32 33 32 32 32 32 31 31 31 32 32 31 29 29 29 28 28 29 30 30 33 34 33 33 33 31 30 31 30 30 33 34 35 35 35 35 37 38 38 40 41 42 42 42 42 40 39 39 38 38 39 39 36 34 35 37 38 39 40 39 38 36 34 29
15 16 18 19 20 21 21 21 22 23 24 25 27 28 29 28 28 29 30 31 31 31 32 31 30 31 32 31 31 31 31 30 30 29 29 30 29 29 31 31 31 34 36 34 32 32 32 32 32 32 33 34 36 36 37 37 37 38 38 39 41 42 43 43 42 41 40 38 36 36 36 36 36 35 33 33 35 37 38 40 41 41 40 40 37
15 16 18 20 20 21 21 21 22 23 24 24 26 29 30 29 29 29 30 30 30 30 30 30 30 31 31 31 31 31 31 31 30 29 29 30 31 31 32 32 32 33 35 35 34 35 36 35 35 35 35 36 36 37 37 38 38 40 41 42 42 42 44 44 42 39 37 36 34 33 33 34 34 33 33 34 35 36 37 38 40 40 39 40 40
15 17 18 20 20 21 21 22 22 23 23 24 26 28 30 29 30 31 30 29 29 29 29 28 28 28 29 30 31 32 32 32 33 32 30 30 31 32 32 32 32 33 34 36 37 37 38 37 36 36 36 37 37 38 38 38 37 38 40 43 44 44 43 41 41 39 36 33 32 32 32 34 34 34 35 37 37 36 36 35 35 36 37 37 38
16 17 18 19 20 21 22 22 23 23 23 24 26 28 29 29 30 31 31 29 28 28 28 27 27 27 27 29 30 32 33 34 35 34 32 31 32 33 33 33 32 33 34 36 36 37 37 38 38 38 38 39 38 38 37 36 35 36 37 39 41 43 43 41 39 37 34 31 30 31 33 35 36 37 39 38 36 33 31 31 32 33 34 35 35
16 17 19 20 20 21 22 23 24 24 24 24 25 27 28 28 29 31 31 29 27 28 27 27 26 26 27 28 30 32 33 34 34 34 33 33 35 35 35 34 34 34 35 36 36 37 38 38 39 39 38 38 37 36 36 35 35 36 37 37 38 40 42 41 38 35 32 32 31 30 33 36 37 38 37 34 32 31 30 30 30 30 31 32 31
16 18 19 20 21 21 22 23 24 24 25 25 27 28 28 27 27 30 31 29 27 27 26 26 27 27 27 28 30 32 32 32 32 33 34 34 35 36 36 36 36 35 35 36 37 38 39 41 40 39 38 37 36 36 37 36 35 36 37 37 38 38 39 40 39 38 36 36 35 33 32 34 35 34 33 31 30 32 32 31 30 29 30 30 26
16 18 19 20 21 21 21 23 24 24 25 26 27 29 29 27 27 29 32 30 28 27 27 28 30 30 29 29 30 30 29 29 30 32 32 33 34 34 32 32 32 32 33 36 37 37 38 38 38 36 36 35 35 34 34 34 34 34 35 35 36 37 38 38 39 40 40 39 38 35 32 31 31 31 31 30 30 32 32 31 30 29 29 26 22
16 18 19 20 21 21 22 23 23 24 26 26 28 29 29 26 26 29 33 31 29 29 30 30 31 31 31 31 31 30 28 29 31 33 34 35 36 36 34 33 33 32 32 33 34 32 30 29 29 29 30 29 29 29 30 31 32 33 34 35 36 36 36 35 34 35 37 37 35 33 30 28 28 29 28 28 30 31 31 30 30 29 26 24 22
16 18 19 20 21 22 22 23 23 23 24 25 27 30 31 28 24 25 29 31 29 28 29 30 31 32 32 31 30 30 31 33 34 36 37 37 37 37 36 35 35 34 33 32 30 26 24 23 24 25 26 26 26 27 28 29 29 30 32 34 34 34 34 33 32 33 34 36 36 34 30 27 26 26 25 25 27 28 29 30 30 28 25 23 21
17 19 20 21 22 22 22 23 23 23 24 24 24 27 31 34 32 27 25 26 27 27 28 28 28 28 28 30 30 31 32 34 35 35 36 37 37 36 36 35 34 34 33 30 25 21 21 21 21 23 25 25 24 26 27 27 27 28 30 31 32 33 32 31 31 32 34 36 37 35 33 29 27 26 25 24 24 24 26 27 27 26 25 23 21
17 19 20 21 21 21 21 21 22 22 23 24 23 23 25 30 36 37 33 28 25 25 25 25 24 25 27 29 31 32 33 33 34 35 35 35 36 36 36 36 34 31 29 26 22 20 20 21 21 24 26 25 26 29 30 29 29 31 31 28 28 31 33 31 31 32 33 34 33 29 28 27 26 25 24 24 23 23 23 24 24 24 23 22 21
17 19 20 20 21 20 20 20 21 21 22 23 24 23 22 23 28 35 40 40 36 30 24 20 20 23 27 30 30 32 33 34 34 34 34 34 35 36 36 34 30 26 24 23 20 20 21 22 23 27 28 28 30 33 32 31 32 32 31 28 27 31 34 34 31 30 29 30 29 25 22 23 24 23 23 24 24 22 22 23 23 23 22 20 20
16 17 18 18 18 19 20 19 20 20 21 22 22 22 23 23 23 26 31 35 38 39 37 33 28 26 28 30 30 30 32 33 33 33 34 34 34 34 33 29 25 24 23 22 20 20 21 22 24 26 28 30 32 32 31 31 33 33 31 30 29 30 32 32 30 27 26 27 27 25 22 20 21 21 21 21 22 22 22 22 23 22 21 20 19
16 16 16 15 16 18 19 18 19 20 21 22 22 21 22 23 24 24 24 25 27 31 36 40 40 36 32 30 31 31 32 33 33 33 32 32 31 30 27 24 22 23 24 22 21 21 21 22 24 27 29 31 34 34 32 32 34 33 29 27 25 25 26 27 27 26 25 25 25 25 23 22 22 23 22 21 20 20 20 21 23 23 22 21 19
15 16 16 15 15 16 17 18 18 19 19 20 21 21 22 22 23 24 24 24 24 25 28 34 39 39 33 28 29 31 32 32 32 31 29 28 28 25 22 19 19 21 21 21 21 21 22 22 25 28 30 30 32 34 33 33 34 31 26 23 21 21 22 24 25 24 24 25 27 27 25 24 23 24 23 22 22 22 22 22 22 22 22 22 20
15 16 16 15 15 15 16 17 17 17 17 19 20 20 21 22 23 24 23 23 23 24 25 28 32 36 35 33 33 33 32 31 30 28 25 25 24 22 19 19 19 19 20 20 21 21 23 24 26 28 29 30 31 33 33 33 32 27 22 20 20 21 23 24 25 25 24 25 26 26 25 24 24 24 22 20 20 22 23 23 23 22 22 22 20
15 15 15 14 14 14 15 16 16 16 16 18 19 19 20 21 22 22 22 22 22 23 24 25 25 26 30 35 37 36 33 33 32 30 28 27 25 22 21 21 20 19 20 21 22 22 23 25 27 28 29 31 31 32 33 32 28 22 19 18 20 22 24 25 25 26 25 24 24 24 23 23 23 23 23 20 19 20 21 23 23 21 20 21 20
15 15 14 13 12 13 14 15 16 16 17 17 18 18 19 21 21 21 21 21 22 22 23 24 23 24 26 31 34 34 32 31 32 32 31 29 27 25 24 23 22 21 22 23 24 24 24 26 28 30 31 31 30 30 31 31 27 21 20 20 19 20 21 21 22 22 22 23 24 24 24 23 22 22 23 22 21 20 19 20 21 21 19 19 20
14 14 14 13 12 13 14 14 15 15 16 17 18 18 19 19 20 21 21 21 22 22 22 22 23 25 27 28 29 29 28 27 28 29 29 29 28 27 26 25 24 24 25 25 26 26 26 27 28 30 31 31 30 30 31 31 29 24 20 20 20 21 22 22 22 22 22 22 23 24 24 24 23 22 22 22 22 22 22 21 21 22 21 21 22
13 13 13 13 13 13 13 13 14 15 16 17 18 18 19 19 20 21 21 21 21 22 22 22 23 25 26 25 24 24 23 24 25 26 26 27 28 27 27 26 26 26 26 26 26 26 26 27 28 30 31 31 31 30 30 30 30 29 24 19 17 17 18 18 18 18 19 19 19 19 20 20 20 20 21 22 22 22 22 21 21 21 20 19 19
11 12 12 12 12 12 12 13 13 14 15 16 17 17 18 19 20 20 20 20 20 20 21 22 24 25 25 23 23 23 23 23 24 25 25 26 26 27 27 27 27 27 26 26 26 26 27 27 28 29 31 32 31 31 30 29 29 29 26 22 19 16 14 13 12 11 11 11 11 12 13 13 13 15 16 17 17 17 18 18 18 18 17 17 18
10 10 11 11 11 11 11 12 13 14 15 15 15 16 17 17 18 18 18 19 19 19 20 22 24 25 25 24 23 23 24 25 24 25 25 26 26 27 27 28 28 28 27 26 26 26 27 27 28 28 29 29 28 28 28 28 27 27 25 22 20 18 16 15 13 11 9 7 5 5 5 6 8 9 10 12 14 15 15 16 17 16 16 17 18
9 10 10 10 10 10 10 10 12 13 13 13 13 14 14 15 16 16 17 17 18 18 18 20 22 23 24 25 25 25 25 25 25 25 26 26 27 28 28 29 29 29 28 28 28 27 27 27 28 29 29 29 28 27 26 26 26 25 24 23 21 20 19 17 15 12 9 5 1 1 3 5 6 9 10 12 14 15 15 16 17 17 16 17 17
8 9 9 9 9 9 10 10 11 12 12 12 13 14 14 14 14 15 15 16 17 18 18 19 20 21 22 24 24 25 25 25 25 25 26 27 28 28 29 29 29 29 29 28 29 29 28 27 28 30 31 31 31 29 28 27 27 26 24 23 21 20 18 16 13 11 7 3 1 4 7 8 9 10 11 13 14 15 16 16 17 17 16 16 16
8 8 8 8 9 9 10 10 11 11 11 12 13 14 14 14 14 14 15 15 16 17 18 19 20 21 21 22 23 24 24 25 25 26 26 27 27 28 29 29 29 29 28 28 29 29 29 28 28 29 30 32 33 32 30 28 27 26 25 23 21 19 17 14 11 8 5 2 3 6 8 10 11 12 13 13 15 15 16 16 16 16 16 16 16
8 7 7 7 8 8 9 10 10 11 11 12 13 13 14 14 13 14 14 15 15 16 17 18 19 20 21 22 22 23 23 24 24 25 26 26 27 28 28 29 29 29 28 28 28 29 29 29 29 29 29 30 31 32 33 32 29 27 24 23 21 19 16 14 11 8 5 4 4 6 9 12 13 14 14 15 16 16 17 16 16 16 16 16 16
7 7 7 7 7 7 8 9 10 10 11 12 13 13 13 14 14 14 14 14 15 16 17 18 19 19 20 21 22 22 23 23 24 25 26 26 27 27 27 28 28 28 28 28 28 28 28 29 29 29 30 29 30 30 31 32 32 30 26 23 20 18 16 13 11 9 7 5 6 8 10 13 15 15 15 16 17 17 18 18 17 18 18 17 17
8 7 7 7 6 7 8 8 9 10 10 11 12 13 13 13 14 14 14 14 15 15 16 17 18 19 20 21 22 22 23 23 24 25 26 26 26 27 26 26 27 27 27 27 27 27 27 27 28 28 29 29 29 29 29 30 30 30 28 25 21 18 16 14 11 9 8 7 8 10 12 14 16 16 17 17 18 18 19 19 19 19 19 18 18
8 7 7 7 7 7 7 8 8 9 10 10 12 13 14 14 14 14 14 15 15 15 16 16 17 18 19 20 21 22 22 23 23 24 25 25 25 26 26 26 26 26 26 26 25 25 25 26 27 28 28 28 29 29 29 28 28 28 27 25 22 19 17 14 12 10 9 9 10 12 14 16 18 18 18 19 19 20 20 20 20 20 20 19 18
8 8 8 7 7 8 8 8 9 9 10 11 12 13 14 14 15 15 15 15 15 15 16 16 16 17 17 18 19 20 21 22 22 23 23 24 24 25 25 25 25 25 25 25 24 24 24 24 25 26 27 28 28 29 28 28 27 26 24 24 22 20 18 16 14 12 11 11 12 14 15 17 19 19 19 20 20 21 20 20 20 21 21 20 20
Wind_Direction
51 45 41 36 32 31 29 26 23 21 20 16 13 11 8 5 3 360 358 356 355 353 351 351 349 348 346 345 344 344 343 343 342 341 340 338 337 337 336 336 334 332 328 322 319 318 315 312 307 303 301 300 298 297 295 292 288 282 275 268 261 258 252 245 250 264 259 255 256 257 257 255 253 252 251 251 250 247 245 246 246 244 242 243 243
63 52 44 36 24 18 12 9 12 12 11 8 4 1 358 356 356 353 350 349 347 346 344 342 341 339 338 337 336 336 336 336 336 335 334 332 331 331 331 331 330 329 329 326 323 322 320 316 312 308 306 302 298 297 295 294 292 286 280 274 267 263 257 251 252 261 264 259 255 255 255 252 251 251 249 249 250 249 247 245 244 244 244 244 243
56 43 31 21 7 3 357 350 354 359 2 359 356 352 349 348 349 346 344 342 340 339 337 335 334 332 330 329 328 328 328 328 328 328 328 327 325 325 324 323 323 323 323 323 322 321 319 317 315 313 312 308 303 299 295 292 291 287 283 278 273 269 264 258 255 257 265 265 257 253 253 252 253 253 251 251 250 248 246 244 243 243 244 243 242
345 345 352 355 347 348 345 335 338 346 351 351 351 349 345 343 343 341 338 336 334 333 332 330 329 328 326 325 324 323 322 322 321 320 320 321 320 319 319 317 315 314 314 314 315 315 315 314 313 314 313 309 305 301 298 294 289 286 283 280 276 273 270 264 259 257 262 266 260 253 252 253 255 256 254 251 248 245 243 243 241 240 241 240 240
318 319 326 333 334 337 335 327 329 335 340 342 343 342 340 339 338 336 334 332 330 329 328 327 326 325 323 322 321 320 319 318 316 315 315 316 316 315 315 313 311 309 307 306 306 306 306 306 308 310 309 306 303 301 299 295 291 287 283 280 278 275 272 268 264 260 259 261 262 257 253 252 253 255 253 248 244 242 242 242 241 240 239 239 239
302 301 304 313 321 328 331 330 330 333 336 338 339 338 337 336 334 332 331 328 327 326 325 324 323 321 319 318 317 315 315 314 312 311 310 311 312 312 311 310 308 307 305 303 301 299 297 297 299 301 301 300 299 299 297 294 291 287 283 281 278 276 273 269 266 263 259 260 262 259 252 248 248 250 250 247 242 239 237 238 239 239 239 239 240
301 297 299 312 327 334 338 339 337 336 335 334 333 333 333 332 330 329 328 327 325 324 323 321 319 317 315 314 313 311 310 309 307 307 307 308 308 308 307 307 306 305 305 303 301 298 295 293 292 293 293 293 293 295 295 293 289 285 283 281 279 276 273 270 267 263 261 262 262 259 254 249 246 246 248 247 243 238 234 231 232 234 235 237 239
312 308 309 319 329 331 331 329 327 325 324 322 322 322 322 323 324 324 324 324 323 322 321 320 318 316 314 312 310 309 307 305 303 303 304 305 305 305 304 303 303 303 303 302 301 299 296 292 290 289 288 288 288 288 289 289 287 284 281 280 277 274 271 269 267 264 261 262 262 260 256 249 243 242 242 237 233 233 230 225 228 231 231 233 237
315 310 310 316 321 322 320 319 317 317 317 317 318 318 319 320 320 320 320 320 320 319 319 318 317 315 314 312 310 309 306 303 302 302 303 304 304 303 302 301 301 300 299 299 298 296 294 292 290 288 286 285 285 284 284 283 281 279 279 278 274 271 270 268 266 263 261 261 261 261 257 248 241 234 230 226 225 231 230 225 230 233 231 234 237
326 322 319 320 320 319 318 317 316 317 318 318 319 319 319 319 319 318 317 317 317 317 316 315 314 313 313 311 310 309 307 305 304 305 304 304 304 303 302 300 299 297 295 294 293 292 290 290 289 287 286 283 282 281 280 280 278 276 276 275 270 267 266 265 263 261 259 259 259 259 254 250 245 234 229 231 231 232 229 223 227 231 228 233 241
336 332 327 323 321 319 319 319 320 320 320 320 319 319 319 318 317 315 314 313 313 314 313 312 312 311 310 310 308 307 306 304 305 307 307 307 306 304 302 300 297 295 292 290 289 289 288 287 287 286 285 284 282 280 279 279 278 276 275 273 269 265 261 259 259 259 257 256 257 257 252 253 252 242 235 237 233 229 229 225 224 224 218 222 239
330 329 327 324 323 323 322 322 322 323 323 322 321 320 318 316 315 314 313 312 312 311 310 310 309 308 309 308 307 306 304 303 305 309 310 310 310 307 304 301 297 294 291 288 287 286 286 286 285 284 283 283 282 281 280 278 278 276 275 273 271 267 262 258 256 255 254 253 255 255 251 253 256 250 240 237 231 228 230 228 224 223 220 223 232
326 327 327 325 325 325 324 323 323 323 323 322 320 318 317 316 316 315 313 312 311 309 308 308 307 306 308 308 306 304 302 302 305 309 311 311 311 309 305 301 297 293 291 288 287 286 285 285 285 284 282 282 281 280 279 278 278 276 275 273 271 269 267 262 259 255 253 252 253 254 253 252 254 253 248 241 232 226 225 225 226 226 225 229 234
328 328 329 327 325 325 324 323 323 322 321 320 319 318 318 317 316 315 313 311 310 308 307 307 306 306 307 308 307 304 301 302 306 309 310 310 309 307 304 299 296 293 290 288 286 285 284 284 284 283 283 282 281 280 279 278 278 277 275 272 270 269 268 266 263 259 255 251 250 253 254 253 252 254 253 247 238 231 226 225 227 226 228 235 240
327 326 326 325 323 322 323 323 322 320 320 319 319 318 318 317 316 315 313 311 310 309 308 307 307 308 309 309 307 303 301 304 309 309 308 308 307 306 303 299 295 292 290 288 286 284 283 283 282 282 282 282 282 282 282 280 279 277 275 272 270 269 267 265 263 261 258 253 250 251 254 254 254 254 254 250 246 243 239 236 235 234 235 240 243
325 322 321 321 320 321 322 321 320 320 320 320 320 319 319 318 316 316 314 312 311 310 309 309 309 310 310 310 308 304 303 307 312 310 309 309 307 305 302 299 295 292 290 288 287 285 284 282 281 282 282 282 282 282 282 282 281 277 274 272 270 268 267 266 265 264 262 259 256 254 255 256 255 255 254 251 250 250 247 242 238 234 233 237 241
322 318 316 317 318 319 320 319 320 321 321 322 321 320 319 317 317 317 315 312 312 311 309 309 309 310 309 309 308 305 305 310 313 312 311 310 308 305 301 298 294 291 289 288 287 286 284 282 282 283 282 282 282 281 281 281 281 279 275 272 270 268 266 266 267 266 264 263 262 260 260 259 258 257 257 255 252 249 243 235 230 225 223 228 238
313 312 313 316 317 319 320 321 322 322 322 322 320 319 318 317 316 316 313 310 308 308 308 308 308 308 308 307 307 305 305 308 312 311 310 309 307 304 300 298 294 291 290 289 287 286 285 284 283 283 282 282 282 282 280 279 278 278 276 273 269 266 266 266 265 265 264 263 262 261 260 260 258 256 256 255 253 246 238 233 231 225 220 223 234
308 311 314 316 317 321 323 323 323 322 321 321 319 317 317 315 314 313 310 307 306 306 307 307 306 307 307 306 306 305 304 307 310 309 308 307 305 302 300 297 294 292 292 291 290 289 288 287 286 285 284 284 282 281 279 277 276 275 275 274 270 265 264 264 264 264 263 262 260 258 256 257 256 253 250 250 249 244 238 237 235 227 222 227 232
308 310 313 317 321 324 325 324 324 323 321 320 318 316 315 313 313 311 309 306 306 307 307 306 305 306 307 306 306 306 305 307 308 308 306 305 304 302 299 295 293 293 293 293 293 293 292 291 290 288 286 285 283 281 279 275 271 269 269 269 268 266 266 265 263 263 262 260 259 257 255 255 255 252 248 245 244 242 238 237 235 229 226 229 230
308 311 316 321 324 325 326 325 325 323 322 321 318 316 315 313 311 310 309 308 308 307 307 307 305 305 307 306 306 306 306 305 306 306 306 304 303 301 298 295 294 294 293 292 291 292 293 293 293 293 292 290 288 287 285 281 276 271 267 263 263 266 267 266 263 261 260 259 257 255 254 254 253 251 247 243 241 240 237 236 234 231 229 229 229
311 315 320 323 324 325 327 327 326 325 324 323 319 316 316 315 312 310 310 309 309 307 306 306 305 305 306 306 306 306 307 306 304 304 303 302 301 300 297 294 293 292 291 290 289 290 292 293 293 293 293 291 289 288 287 285 283 280 276 271 268 267 267 267 264 259 254 252 252 250 248 248 249 247 244 240 240 239 237 235 234 232 230 231 230
315 319 323 324 325 326 328 328 328 326 325 324 320 317 317 316 313 312 311 310 309 307 305 305 305 304 305 306 306 306 307 307 304 302 300 300 300 298 296 294 293 292 290 290 290 290 291 290 290 289 289 288 287 286 284 282 281 280 279 277 275 272 270 268 266 261 252 245 244 244 243 242 242 243 241 239 239 239 237 236 235 233 232 233 234
317 321 323 324 325 327 328 328 327 327 326 324 320 317 316 314 313 313 313 311 307 303 302 304 303 303 303 304 306 307 308 308 306 303 300 299 299 299 297 295 295 293 290 289 289 289 289 288 287 286 287 287 287 287 286 285 283 282 281 280 279 279 277 271 265 261 255 245 237 237 239 239 237 238 239 239 240 240 238 237 237 235 235 236 236
319 321 323 324 326 328 327 327 327 326 325 324 320 315 313 313 313 313 312 308 304 300 299 301 301 300 299 300 302 305 308 308 306 305 301 298 297 296 294 293 293 292 290 288 287 287 288 288 289 290 291 291 290 289 288 287 286 284 283 282 281 279 279 276 270 262 254 246 238 233 235 237 237 237 239 240 239 238 236 236 236 236 236 237 238
319 321 323 324 327 328 326 326 326 325 324 324 319 313 311 311 312 312 308 303 299 296 296 298 299 298 298 298 300 303 306 305 303 303 302 299 296 292 289 287 287 287 286 286 287 287 288 289 290 290 289 288 287 285 285 284 283 282 282 283 283 279 275 276 275 269 258 248 242 235 233 235 237 239 239 237 234 232 231 230 230 231 231 232 234
319 320 323 324 326 327 325 323 323 323 323 323 318 314 313 312 311 307 303 299 296 293 294 296 297 295 295 297 299 300 302 301 301 302 302 298 294 290 287 285 283 281 280 281 282 284 286 287 287 286 285 286 285 284 284 283 281 280 279 279 279 277 273 271 271 272 268 257 246 239 235 234 235 236 234 230 227 229 229 225 223 224 226 225 226
318 319 322 323 324 326 324 321 321 321 321 320 317 314 313 312 310 305 301 296 292 289 289 291 292 293 295 298 299 299 298 298 299 300 299 296 294 292 289 287 284 280 277 277 277 277 277 278 278 278 278 279 279 279 279 278 276 276 275 274 274 274 273 270 267 268 271 265 251 240 234 230 229 229 228 225 224 226 225 221 220 222 221 216 217
317 318 321 322 323 323 322 320 320 319 318 317 316 315 314 311 306 302 301 297 290 287 291 294 295 296 298 300 301 301 298 299 301 302 302 301 300 301 299 296 293 288 284 283 282 281 278 276 275 275 275 274 275 276 276 277 276 275 274 274 274 273 272 271 267 265 268 267 256 242 233 227 224 224 223 221 222 225 223 218 218 219 215 209 213
315 317 320 321 322 322 320 319 319 318 317 315 315 318 320 318 308 297 295 296 295 292 294 297 300 303 303 303 303 302 300 302 304 305 305 305 306 306 305 304 302 300 299 299 297 296 293 289 286 286 284 282 281 280 278 276 274 272 272 273 274 274 272 271 270 267 266 267 260 246 236 230 224 220 218 217 220 223 221 217 217 214 208 205 212
313 316 320 320 321 320 318 317 318 318 317 316 314 316 322 325 322 312 299 295 297 301 302 302 304 306 306 307 308 306 305 306 307 308 308 309 310 310 309 307 307 305 306 310 311 307 301 298 294 292 290 287 284 281 279 277 273 271 272 272 272 273 271 271 272 272 271 271 263 245 231 227 223 218 216 215 217 218 216 214 213 210 206 208 213
312 314 318 318 319 318 315 315 316 317 317 317 315 316 319 321 323 324 322 315 307 304 305 307 311 314 314 314 314 312 311 311 311 312 312 312 312 311 310 309 309 309 313 318 318 311 305 301 296 294 293 290 286 284 282 278 275 274 273 270 269 270 270 270 273 274 274 274 266 244 225 221 222 220 218 216 216 215 210 205 206 205 206 210 214
312 313 316 317 318 317 315 314 315 316 316 315 314 317 320 315 312 316 324 328 329 327 322 316 315 319 320 319 318 317 316 316 316 316 316 315 314 313 313 313 313 314 319 320 314 306 303 300 295 294 292 289 287 287 284 279 276 274 270 265 264 267 269 270 272 273 272 272 269 256 237 225 222 223 223 219 215 212 205 200 202 203 203 206 212
313 313 314 315 315 314 313 313 314 316 316 313 312 314 317 314 307 306 313 322 329 333 333 332 331 331 328 325 323 322 321 320 321 320 320 320 320 320 321 321 320 320 322 319 311 304 301 297 294 293 292 290 289 287 283 280 279 276 271 266 263 264 268 270 270 270 269 268 266 260 250 238 229 227 226 221 214 209 204 201 200 199 200 204 209
314 315 316 315 312 311 311 312 315 317 316 313 313 314 315 312 309 307 306 309 313 317 321 326 330 334 333 329 328 328 327 325 324 325 326 327 328 329 331 331 328 326 324 320 314 308 304 301 300 299 297 297 297 294 289 285 284 279 272 267 263 261 263 266 267 268 269 268 264 256 250 244 236 232 230 224 214 207 204 203 201 201 202 204 206
316 317 318 317 314 311 311 315 319 320 317 313 312 315 316 313 309 307 307 307 307 307 311 318 325 330 333 332 332 332 330 329 329 331 332 334 336 338 340 337 332 326 323 321 319 315 312 310 308 305 303 302 301 300 297 292 289 284 275 267 263 261 261 262 264 268 271 269 262 252 246 242 238 232 230 223 213 207 206 205 204 204 204 204 204
317 318 319 320 318 314 314 318 322 322 318 314 314 317 318 315 311 309 308 308 309 312 314 320 326 331 333 335 338 337 335 334 335 338 339 341 343 344 341 335 328 324 321 321 321 318 315 314 311 308 307 305 302 302 302 299 293 286 276 266 262 261 262 262 263 267 269 264 253 242 237 237 236 231 227 221 212 208 206 204 202 204 206 204 203
317 320 320 320 317 314 315 319 324 325 321 318 319 322 320 316 312 311 311 312 314 316 319 323 326 327 328 332 338 340 338 338 340 343 345 346 347 345 339 333 328 323 319 319 320 318 316 315 312 310 310 308 304 306 311 310 301 287 273 267 263 260 260 261 262 265 265 259 249 239 235 235 234 229 223 219 214 209 207 204 200 199 200 202 201
318 321 323 321 317 314 317 322 327 331 327 323 324 325 321 317 315 313 314 316 319 321 323 324 326 328 329 332 337 340 342 342 342 342 342 343 344 342 338 334 330 326 322 320 321 320 318 315 315 316 316 315 314 315 319 321 317 299 278 271 269 267 265 265 267 270 268 258 247 241 238 236 235 230 221 215 210 207 205 203 199 195 194 197 199
318 321 325 327 322 319 323 329 334 334 330 326 327 327 322 317 315 316 318 321 322 323 325 325 325 330 334 334 337 342 343 340 338 338 338 340 341 341 340 337 332 328 326 323 322 322 321 319 320 323 323 323 324 323 324 329 335 327 303 283 275 273 272 273 274 275 273 262 248 240 237 235 231 225 217 210 207 206 204 203 201 199 197 198 197
317 320 325 328 327 326 331 336 338 337 331 327 328 329 324 319 318 318 320 323 323 323 325 325 327 332 336 336 339 345 345 339 337 339 340 341 341 341 341 339 336 333 330 328 327 327 325 324 325 328 330 333 335 334 332 336 343 345 337 324 308 294 287 288 287 282 276 264 250 242 240 236 226 217 213 210 208 206 204 201 200 198 195 193 188
316 319 323 327 329 332 336 340 340 338 334 331 333 332 326 321 320 321 322 323 323 323 325 328 331 337 341 341 342 347 349 346 344 344 344 344 345 345 344 343 342 340 337 336 336 335 334 333 333 334 338 341 342 342 343 346 349 350 348 346 347 344 335 328 325 315 298 282 265 256 252 243 228 217 212 207 200 195 190 187 184 182 179 176 173
314 317 321 327 332 335 339 343 343 339 334 333 334 332 327 322 321 323 324 325 326 327 329 331 334 339 344 347 349 351 353 353 352 350 348 348 347 347 347 347 347 346 344 344 345 345 344 344 343 343 345 347 347 348 350 353 355 357 357 356 358 1 359 354 351 344 331 315 295 269 248 228 209 197 188 181 177 172 167 164 164 163 163 162 161
312 316 320 325 333 340 346 349 345 338 335 335 334 331 327 324 324 328 330 330 331 334 335 334 335 338 343 349 353 354 354 354 353 352 352 351 349 349 349 349 350 351 351 351 353 354 353 353 354 355 355 357 358 360 1 3 5 7 8 6 5 5 4 1 358 353 343 334 330 154 151 150 155 156 154 155 156 152 148 150 151 151 151 153 153
309 314 320 326 334 343 350 353 347 341 341 343 340 336 333 330 330 334 336 335 336 340 339 338 339 340 343 347 351 352 352 353 353 353 353 353 352 352 352 352 353 355 356 358 1 2 1 360 0 2 4 5 7 8 10 11 14 16 15 12 9 7 4 1 357 352 347 348 100 128 132 132 133 136 138 141 144 143 142 143 145 144 145 148 149
304 310 319 326 335 346 351 350 346 345 349 348 341 335 335 336 337 339 339 339 340 340 339 340 344 346 347 349 351 351 352 354 354 355 355 356 356 356 356 356 357 360 3 6 8 10 9 7 5 5 5 8 11 14 14 15 17 18 18 16 12 7 4 1 357 357 3 32 102 120 124 125 126 129 132 135 136 136 135 136 139 140 141 142 144
300 308 318 325 335 346 349 347 347 348 349 347 339 334 334 337 339 339 340 341 342 340 340 343 347 349 351 352 352 352 354 355 355 356 358 359 360 1 1 2 3 5 8 12 15 16 15 15 13 10 7 7 10 14 16 18 18 18 18 18 15 9 6 5 5 11 26 54 97 115 119 117 117 121 127 129 128 128 127 128 130 131 133 134 136
295 304 314 323 334 342 342 343 348 348 345 341 337 335 336 337 337 338 340 342 342 343 343 346 349 351 352 353 353 354 356 357 358 360 1 2 4 6 6 7 7 8 10 14 18 20 20 20 19 17 15 12 11 12 14 17 18 18 18 18 16 13 12 13 17 25 38 60 89 107 114 115 114 116 119 121 122 122 121 121 122 124 125 127 130
294 300 307 317 330 336 336 339 343 342 338 335 333 334 336 336 336 337 339 340 342 344 345 346 349 351 353 353 354 356 358 358 360 2 4 5 6 8 9 10 12 12 13 15 18 20 22 24 23 22 21 20 19 17 16 16 17 18 17 17 17 17 19 24 29 36 49 69 89 102 108 111 111 112 114 116 117 118 117 116 118 120 120 120 122
291 295 302 310 319 324 328 334 336 333 330 330 329 330 333 333 333 336 339 338 339 342 345 347 349 351 351 352 353 354 357 358 359 0 2 4 6 8 10 12 13 14 15 16 17 19 22 24 25 24 23 23 24 24 22 21 20 19 18 18 19 20 25 31 39 46 57 74 90 100 105 107 107 107 109 111 112 113 113 113 114 115 116 116 117
286 289 295 301 306 312 318 325 328 327 327 329 327 327 327 327 328 331 333 333 334 337 340 342 346 348 349 351 351 351 354 356 357 358 1 3 5 7 9 11 12 13 14 14 16 17 20 23 25 25 23 22 23 24 24 23 23 23 21 21 22 25 28 33 42 53 64 77 90 98 102 105 105 105 107 109 110 110 110 111 112 113 112 113 114